Powrót do katalogu

OV1-5 R/B

AktywnyLEO
NORAD 2123·ROCKET BODY·🇺🇸 United States

Wystrzelony Mar 30, 1966 z Vandenberg Space Force Base

Loading…

Następne Przeloty (najbliższe 24 godziny)

TLE

ŚwieżeSource: Space-Track

Epoka: Sep 14, 2026, 20:31 UTC

1 02123U 66025C   26257.85532670  .00000304  00000-0  57204-4 0  9994
2 02123 144.6417 359.7649 0046467 173.1790 186.9513 13.65907769 17065

Śledź OV1-5 R/B w czasie rzeczywistym z AllMySat

Download on the App Store